• In Deutschland
  • Länderverzeichnis
  • Für 7 Tage
  • Wassertemperatur
  • Satellitenkarten
  • Wetterkarte
  • Widgets
  • user-avatar
    Anmelden

    Stündliche Wetter Haradok

    Heute, 26 Juli, Mittwoch

    Zeit Temperatur Niederschläge Wind Luftdruck Luftfeuchtigkeit
    00:00 +19°C° 2,4 mm 3 m/S 739 mmHg 96%
    01:00 +19°C° 2,4 mm 3 m/S 739 mmHg 97%
    02:00 +19°C° 2,4 mm 3 m/S 739 mmHg 97%
    03:00 +19°C° 0,8 mm 3 m/S 739 mmHg 96%
    04:00 +19°C° 0,8 mm 3 m/S 738 mmHg 96%
    05:00 +19°C° 0,8 mm 3 m/S 738 mmHg 96%
    06:00 +19°C° 0,2 mm 3 m/S 738 mmHg 94%
    07:00 +20°C° 0,2 mm 3 m/S 738 mmHg 92%
    08:00 +21°C° 0 mm 4 m/S 738 mmHg 90%
    09:00 +22°C° 0,1 mm 4 m/S 737 mmHg 85%
    10:00 +25°C° 0,1 mm 4 m/S 737 mmHg 79%
    11:00 +26°C° 0,1 mm 4 m/S 737 mmHg 73%
    12:00 +27°C° 1,3 mm 4 m/S 737 mmHg 73%
    13:00 +28°C° 1,3 mm 4 m/S 737 mmHg 73%
    14:00 +28°C° 1,3 mm 4 m/S 737 mmHg 72%
    15:00 +28°C° 1,2 mm 4 m/S 737 mmHg 75%
    16:00 +27°C° 1,2 mm 3 m/S 737 mmHg 78%
    17:00 +27°C° 1,2 mm 3 m/S 737 mmHg 82%
    18:00 +25°C° 0,3 mm 3 m/S 737 mmHg 85%
    19:00 +24°C° 0,3 mm 3 m/S 737 mmHg 89%
    20:00 +21°C° 0,3 mm 3 m/S 737 mmHg 93%
    21:00 +20°C° 0 mm 3 m/S 738 mmHg 94%
    22:00 +19°C° 0 mm 3 m/S 738 mmHg 95%
    23:00 +18°C° 0 mm 3 m/S 738 mmHg 96%

    Morgen, 27 Juli, Donnerstag

    Zeit Temperatur Niederschläge Wind Luftdruck Luftfeuchtigkeit
    00:00 +18°C° 0 mm 3 m/S 739 mmHg 96%
    01:00 +17°C° 0 mm 3 m/S 739 mmHg 95%
    02:00 +16°C° 0 mm 3 m/S 739 mmHg 95%
    03:00 +16°C° 0 mm 3 m/S 739 mmHg 95%
    04:00 +16°C° 0 mm 3 m/S 740 mmHg 95%
    05:00 +14°C° 0 mm 3 m/S 740 mmHg 94%
    06:00 +16°C° 0 mm 3 m/S 740 mmHg 89%
    07:00 +18°C° 0 mm 4 m/S 740 mmHg 84%
    08:00 +19°C° 0 mm 4 m/S 741 mmHg 79%
    09:00 +20°C° 0 mm 4 m/S 741 mmHg 73%
    10:00 +22°C° 0 mm 4 m/S 741 mmHg 67%
    11:00 +23°C° 0 mm 4 m/S 742 mmHg 61%
    12:00 +25°C° 0 mm 4 m/S 742 mmHg 59%
    13:00 +26°C° 0 mm 4 m/S 742 mmHg 57%
    14:00 +26°C° 0 mm 4 m/S 742 mmHg 55%
    15:00 +26°C° 0 mm 3 m/S 742 mmHg 56%
    16:00 +26°C° 0 mm 3 m/S 742 mmHg 58%
    17:00 +26°C° 0 mm 2 m/S 742 mmHg 60%
    18:00 +24°C° 0 mm 2 m/S 742 mmHg 66%
    19:00 +23°C° 0 mm 1 m/S 742 mmHg 72%
    20:00 +21°C° 0 mm 1 m/S 742 mmHg 78%
    21:00 +20°C° 0 mm 1 m/S 742 mmHg 80%
    22:00 +19°C° 0 mm 1 m/S 742 mmHg 83%
    23:00 +19°C° 0 mm 1 m/S 742 mmHg 85%

    übermorgen, 28 Juli, Freitag

    Zeit Temperatur Niederschläge Wind Luftdruck Luftfeuchtigkeit
    00:00 +18°C° 0 mm 1 m/S 742 mmHg 86%
    01:00 +18°C° 0 mm 1 m/S 742 mmHg 87%
    02:00 +18°C° 0 mm 1 m/S 742 mmHg 88%
    03:00 +18°C° 0 mm 1 m/S 742 mmHg 87%
    04:00 +18°C° 0 mm 1 m/S 742 mmHg 87%
    05:00 +18°C° 0 mm 1 m/S 742 mmHg 87%
    06:00 +19°C° 0 mm 1 m/S 742 mmHg 84%
    07:00 +20°C° 0 mm 2 m/S 742 mmHg 81%
    08:00 +21°C° 0 mm 2 m/S 742 mmHg 79%
    09:00 +21°C° 0,4 mm 2 m/S 742 mmHg 80%
    10:00 +21°C° 0,4 mm 2 m/S 742 mmHg 80%
    11:00 +21°C° 0,4 mm 2 m/S 742 mmHg 81%
    12:00 +23°C° 1,2 mm 2 m/S 742 mmHg 82%
    13:00 +23°C° 1,2 mm 2 m/S 741 mmHg 83%
    14:00 +23°C° 1,2 mm 2 m/S 741 mmHg 83%
    15:00 +23°C° 1,1 mm 2 m/S 741 mmHg 84%
    16:00 +23°C° 1,1 mm 2 m/S 741 mmHg 85%
    17:00 +23°C° 1,1 mm 2 m/S 741 mmHg 86%
    18:00 +21°C° 0,1 mm 2 m/S 741 mmHg 89%
    19:00 +20°C° 0,1 mm 2 m/S 741 mmHg 93%
    20:00 +18°C° 0,1 mm 2 m/S 741 mmHg 96%
    21:00 +18°C° 0 mm 2 m/S 741 mmHg 96%
    22:00 +17°C° 0 mm 2 m/S 741 mmHg 96%
    23:00 +16°C° 0 mm 2 m/S 741 mmHg 97%

    29 Juli, Samstag

    Zeit Temperatur Niederschläge Wind Luftdruck Luftfeuchtigkeit
    00:00 +16°C° 0 mm 2 m/S 741 mmHg 97%
    01:00 +16°C° 0 mm 2 m/S 742 mmHg 97%
    02:00 +15°C° 0 mm 2 m/S 742 mmHg 97%
    03:00 +15°C° 0 mm 2 m/S 742 mmHg 98%
    04:00 +14°C° 0 mm 3 m/S 742 mmHg 98%
    05:00 +14°C° 0 mm 3 m/S 743 mmHg 98%
    06:00 +16°C° 0 mm 3 m/S 743 mmHg 95%
    07:00 +16°C° 0 mm 3 m/S 743 mmHg 92%
    08:00 +17°C° 0 mm 4 m/S 744 mmHg 89%
    09:00 +18°C° 0 mm 4 m/S 744 mmHg 82%
    10:00 +19°C° 0 mm 4 m/S 744 mmHg 75%
    11:00 +20°C° 0 mm 4 m/S 745 mmHg 68%
    12:00 +21°C° 0 mm 4 m/S 745 mmHg 64%
    13:00 +22°C° 0 mm 4 m/S 745 mmHg 60%
    14:00 +23°C° 0 mm 4 m/S 745 mmHg 55%
    15:00 +23°C° 0 mm 4 m/S 745 mmHg 57%
    16:00 +23°C° 0 mm 4 m/S 745 mmHg 58%
    17:00 +22°C° 0 mm 4 m/S 745 mmHg 60%
    18:00 +21°C° 0 mm 3 m/S 745 mmHg 67%
    19:00 +19°C° 0 mm 3 m/S 745 mmHg 74%
    20:00 +18°C° 0 mm 3 m/S 745 mmHg 81%
    21:00 +17°C° 0 mm 3 m/S 746 mmHg 85%
    22:00 +16°C° 0 mm 3 m/S 746 mmHg 89%
    23:00 +14°C° 0 mm 3 m/S 746 mmHg 93%

    30 Juli, Sonntag

    Zeit Temperatur Niederschläge Wind Luftdruck Luftfeuchtigkeit
    00:00 +14°C° 0 mm 3 m/S 747 mmHg 94%
    01:00 +13°C° 0 mm 3 m/S 747 mmHg 95%
    02:00 +13°C° 0 mm 3 m/S 747 mmHg 96%
    03:00 +13°C° 0 mm 3 m/S 747 mmHg 97%
    04:00 +13°C° 0 mm 2 m/S 748 mmHg 97%
    05:00 +13°C° 0 mm 2 m/S 748 mmHg 97%
    06:00 +14°C° 0 mm 3 m/S 748 mmHg 90%
    07:00 +17°C° 0 mm 3 m/S 748 mmHg 83%
    08:00 +18°C° 0 mm 3 m/S 749 mmHg 77%
    09:00 +20°C° 0 mm 3 m/S 749 mmHg 71%
    10:00 +21°C° 0 mm 4 m/S 749 mmHg 66%
    11:00 +22°C° 0 mm 4 m/S 749 mmHg 61%
    12:00 +23°C° 0 mm 4 m/S 749 mmHg 60%
    13:00 +25°C° 0 mm 4 m/S 749 mmHg 59%
    14:00 +25°C° 0 mm 4 m/S 749 mmHg 57%
    15:00 +25°C° 0 mm 4 m/S 749 mmHg 60%
    16:00 +25°C° 0 mm 4 m/S 749 mmHg 64%
    17:00 +25°C° 0 mm 4 m/S 748 mmHg 67%
    18:00 +22°C° 0 mm 3 m/S 748 mmHg 74%
    19:00 +21°C° 0 mm 3 m/S 749 mmHg 81%
    20:00 +20°C° 0 mm 2 m/S 749 mmHg 88%
    21:00 +19°C° 0 mm 2 m/S 749 mmHg 90%
    22:00 +18°C° 0 mm 2 m/S 749 mmHg 93%
    23:00 +18°C° 0 mm 2 m/S 749 mmHg 95%

    31 Juli, Montag

    Zeit Temperatur Niederschläge Wind Luftdruck Luftfeuchtigkeit
    00:00 +17°C° 0 mm 2 m/S 749 mmHg 95%
    01:00 +17°C° 0 mm 2 m/S 749 mmHg 96%
    02:00 +17°C° 0 mm 2 m/S 749 mmHg 96%
    03:00 +17°C° 0 mm 2 m/S 749 mmHg 96%
    04:00 +17°C° 0 mm 2 m/S 749 mmHg 95%
    05:00 +17°C° 0 mm 2 m/S 749 mmHg 95%
    06:00 +19°C° 0 mm 3 m/S 749 mmHg 89%
    07:00 +21°C° 0 mm 3 m/S 749 mmHg 83%
    08:00 +23°C° 0 mm 4 m/S 749 mmHg 76%
    09:00 +25°C° 0,1 mm 4 m/S 748 mmHg 73%
    10:00 +26°C° 0,1 mm 5 m/S 748 mmHg 69%
    11:00 +27°C° 0,1 mm 5 m/S 748 mmHg 66%
    12:00 +27°C° 0,4 mm 5 m/S 748 mmHg 68%
    13:00 +27°C° 0,4 mm 5 m/S 748 mmHg 71%
    14:00 +27°C° 0,4 mm 5 m/S 748 mmHg 74%
    15:00 +27°C° 0,5 mm 5 m/S 748 mmHg 75%
    16:00 +27°C° 0,5 mm 4 m/S 748 mmHg 76%
    17:00 +27°C° 0,5 mm 4 m/S 748 mmHg 78%
    18:00 +26°C° 0,1 mm 3 m/S 748 mmHg 80%
    19:00 +24°C° 0,1 mm 3 m/S 748 mmHg 83%
    20:00 +22°C° 0,1 mm 3 m/S 749 mmHg 85%
    21:00 +21°C° 0 mm 3 m/S 749 mmHg 88%
    22:00 +20°C° 0 mm 3 m/S 750 mmHg 90%
    23:00 +19°C° 0 mm 3 m/S 750 mmHg 92%
    Mehr zeigen